Time,TemperatureF,DewpointF,PressureIn,WindDirection,WindDirectionDegrees,WindSpeedMPH,WindSpeedGustMPH,Humidity,HourlyPrecipIn,Conditions,Clouds,dailyrainin,SoftwareType,DateUTC
2013-02-03 00:00:00,30.0,27.0,30.34,South,174,1.0,3.0,88,0.00,,,-99.99,,2013-02-03 07:00:00,
2013-02-03 00:42:00,30.0,27.0,30.34,South,174,1.0,3.0,88,0.00,,,-99.99,,2013-02-03 07:42:00,
2013-02-03 00:52:00,30.0,27.0,30.34,South,174,1.0,3.0,88,0.00,,,-99.99,,2013-02-03 07:52:00,
2013-02-03 02:00:00,29.0,27.0,30.31,South,169,1.0,3.0,89,0.00,,,-99.99,,2013-02-03 09:00:00,
2013-02-03 02:42:00,29.0,27.0,30.31,South,169,1.0,3.0,89,0.00,,,-99.99,,2013-02-03 09:42:00,
2013-02-03 02:52:00,29.0,27.0,30.31,South,169,1.0,3.0,89,0.00,,,-99.99,,2013-02-03 09:52:00,
2013-02-03 03:00:00,29.0,26.0,30.29,West,265,0.0,2.0,90,0.00,,,-99.99,,2013-02-03 10:00:00,
2013-02-03 03:42:00,29.0,26.0,30.29,West,265,0.0,2.0,90,0.00,,,-99.99,,2013-02-03 10:42:00,
2013-02-03 03:52:00,29.0,26.0,30.29,West,265,0.0,2.0,90,0.00,,,-99.99,,2013-02-03 10:52:00,
2013-02-03 04:00:00,29.0,26.0,30.27,WSW,239,1.0,2.0,91,0.00,,,-99.99,,2013-02-03 11:00:00,
2013-02-03 04:42:00,29.0,26.0,30.27,WSW,239,1.0,2.0,91,0.00,,,-99.99,,2013-02-03 11:42:00,
2013-02-03 04:52:00,29.0,26.0,30.27,WSW,239,1.0,2.0,91,0.00,,,-99.99,,2013-02-03 11:52:00,
2013-02-03 05:00:00,28.0,26.0,30.25,South,174,1.0,3.0,93,0.00,,,-99.99,,2013-02-03 12:00:00,
2013-02-03 05:42:00,28.0,26.0,30.25,South,174,1.0,3.0,93,0.00,,,-99.99,,2013-02-03 12:42:00,
2013-02-03 05:53:00,28.0,26.0,30.25,South,174,1.0,3.0,93,0.00,,,-99.99,,2013-02-03 12:53:00,
2013-02-03 06:00:00,28.0,26.0,30.24,SSW,206,1.0,3.0,93,0.00,,,-99.99,,2013-02-03 13:00:00,
2013-02-03 06:32:00,28.0,26.0,30.24,SSW,206,1.0,3.0,93,0.00,,,-99.99,,2013-02-03 13:32:00,
2013-02-03 06:42:00,28.0,26.0,30.24,SSW,206,1.0,3.0,93,0.00,,,-99.99,,2013-02-03 13:42:00,
2013-02-03 06:52:00,28.0,26.0,30.24,SSW,206,1.0,3.0,93,0.00,,,-99.99,,2013-02-03 13:52:00,
2013-02-03 07:00:00,28.0,26.0,30.22,WSW,242,0.0,1.0,93,0.00,,,-99.99,,2013-02-03 14:00:00,
2013-02-03 07:42:00,28.0,26.0,30.22,WSW,242,0.0,1.0,93,0.00,,,-99.99,,2013-02-03 14:42:00,
2013-02-03 07:52:00,28.0,26.0,30.22,WSW,242,0.0,1.0,93,0.00,,,-99.99,,2013-02-03 14:52:00,
2013-02-03 08:00:00,28.0,27.0,30.22,South,188,1.0,2.0,95,0.00,,,-99.99,,2013-02-03 15:00:00,
2013-02-03 08:42:00,28.0,27.0,30.22,South,188,1.0,2.0,95,0.00,,,-99.99,,2013-02-03 15:42:00,
2013-02-03 08:52:00,28.0,27.0,30.22,South,188,1.0,2.0,95,0.00,,,-99.99,,2013-02-03 15:52:00,
2013-02-03 09:00:00,29.0,28.0,30.22,ESE,107,0.0,2.0,94,0.00,,,-99.99,,2013-02-03 16:00:00,
2013-02-03 09:42:00,29.0,28.0,30.22,ESE,107,0.0,2.0,94,0.00,,,-99.99,,2013-02-03 16:42:00,
2013-02-03 09:52:00,29.0,28.0,30.22,ESE,107,0.0,2.0,94,0.00,,,-99.99,,2013-02-03 16:52:00,
2013-02-03 10:00:00,31.0,28.0,30.23,East,91,0.0,2.0,90,0.00,,,-99.99,,2013-02-03 17:00:00,
2013-02-03 10:42:00,31.0,28.0,30.23,East,91,0.0,2.0,90,0.00,,,-99.99,,2013-02-03 17:42:00,
2013-02-03 10:52:00,31.0,28.0,30.23,East,91,0.0,2.0,90,0.00,,,-99.99,,2013-02-03 17:52:00,
2013-02-03 11:00:00,32.0,29.0,30.22,NW,313,1.0,4.0,88,0.00,,,-99.99,,2013-02-03 18:00:00,
2013-02-03 11:42:00,32.0,29.0,30.22,NW,313,1.0,4.0,88,0.00,,,-99.99,,2013-02-03 18:42:00,
2013-02-03 11:52:00,32.0,29.0,30.22,NW,313,1.0,4.0,88,0.00,,,-99.99,,2013-02-03 18:52:00,
2013-02-03 12:00:00,34.0,29.0,30.20,NW,316,2.0,4.0,82,0.00,,,-99.99,,2013-02-03 19:00:00,
2013-02-03 12:33:00,34.0,29.0,30.20,NW,316,2.0,4.0,82,0.00,,,-99.99,,2013-02-03 19:33:00,
2013-02-03 12:42:00,34.0,29.0,30.20,NW,316,2.0,4.0,82,0.00,,,-99.99,,2013-02-03 19:42:00,
2013-02-03 12:52:00,34.0,29.0,30.20,NW,316,2.0,4.0,82,0.00,,,-99.99,,2013-02-03 19:52:00,
2013-02-03 13:00:00,35.0,29.0,30.17,South,178,1.0,5.0,78,0.00,,,-99.99,,2013-02-03 20:00:00,
2013-02-03 13:42:00,35.0,29.0,30.17,South,178,1.0,5.0,78,0.00,,,-99.99,,2013-02-03 20:42:00,
2013-02-03 13:52:00,35.0,29.0,30.17,South,178,1.0,5.0,78,0.00,,,-99.99,,2013-02-03 20:52:00,
2013-02-03 14:00:00,36.0,29.0,30.14,NNW,335,3.0,7.0,77,0.00,,,-99.99,,2013-02-03 21:00:00,
2013-02-03 14:42:00,36.0,29.0,30.14,NNW,335,3.0,7.0,77,0.00,,,-99.99,,2013-02-03 21:42:00,
2013-02-03 14:52:00,36.0,29.0,30.14,NNW,335,3.0,7.0,77,0.00,,,-99.99,,2013-02-03 21:52:00,
2013-02-03 16:00:00,37.0,29.0,30.12,West,269,1.0,3.0,72,0.00,,,-99.99,,2013-02-03 23:00:00,
2013-02-03 16:42:00,37.0,29.0,30.12,West,269,1.0,3.0,72,0.00,,,-99.99,,2013-02-03 23:42:00,
2013-02-03 16:52:00,37.0,29.0,30.12,West,269,1.0,3.0,72,0.00,,,-99.99,,2013-02-03 23:52:00,
2013-02-03 17:00:00,37.0,30.0,30.11,SE,143,1.0,4.0,73,0.00,,,-99.99,,2013-02-04 00:00:00,
2013-02-03 17:42:00,37.0,30.0,30.11,SE,143,1.0,4.0,73,0.00,,,-99.99,,2013-02-04 00:42:00,
2013-02-03 17:52:00,37.0,30.0,30.11,SE,143,1.0,4.0,73,0.00,,,-99.99,,2013-02-04 00:52:00,
2013-02-03 18:00:00,36.0,30.0,30.09,WSW,247,1.0,3.0,78,0.00,,,-99.99,,2013-02-04 01:00:00,
2013-02-03 18:32:00,36.0,30.0,30.09,WSW,247,1.0,3.0,78,0.00,,,-99.99,,2013-02-04 01:32:00,
2013-02-03 18:42:00,36.0,30.0,30.09,WSW,247,1.0,3.0,78,0.00,,,-99.99,,2013-02-04 01:42:00,
2013-02-03 18:52:00,36.0,30.0,30.09,WSW,247,1.0,3.0,78,0.00,,,-99.99,,2013-02-04 01:52:00,
2013-02-03 19:00:00,33.0,29.0,30.10,SW,222,1.0,3.0,83,0.00,,,-99.99,,2013-02-04 02:00:00,
2013-02-03 19:42:00,33.0,29.0,30.10,SW,222,1.0,3.0,83,0.00,,,-99.99,,2013-02-04 02:42:00,
2013-02-03 19:52:00,33.0,29.0,30.10,SW,222,1.0,3.0,83,0.00,,,-99.99,,2013-02-04 02:52:00,
2013-02-03 20:00:00,32.0,28.0,30.11,SSW,203,1.0,3.0,85,0.00,,,-99.99,,2013-02-04 03:00:00,
2013-02-03 20:42:00,32.0,28.0,30.11,SSW,203,1.0,3.0,85,0.00,,,-99.99,,2013-02-04 03:42:00,
2013-02-03 20:52:00,32.0,28.0,30.11,SSW,203,1.0,3.0,85,0.00,,,-99.99,,2013-02-04 03:52:00,
2013-02-03 22:00:00,29.0,27.0,30.13,SSW,210,1.0,4.0,90,0.00,,,-99.99,,2013-02-04 05:00:00,
2013-02-03 22:33:00,29.0,27.0,30.13,SSW,210,1.0,4.0,90,0.00,,,-99.99,,2013-02-04 05:33:00,
2013-02-03 22:42:00,29.0,27.0,30.13,SSW,210,1.0,4.0,90,0.00,,,-99.99,,2013-02-04 05:42:00,
2013-02-03 22:52:00,29.0,27.0,30.13,SSW,210,1.0,4.0,90,0.00,,,-99.99,,2013-02-04 05:52:00,
2013-02-03 23:00:00,29.0,26.0,30.13,South,176,2.0,3.0,91,0.00,,,-99.99,,2013-02-04 06:00:00,
2013-02-03 23:32:00,29.0,26.0,30.13,South,176,2.0,3.0,91,0.00,,,-99.99,,2013-02-04 06:32:00,
2013-02-03 23:42:00,29.0,26.0,30.13,South,176,2.0,3.0,91,0.00,,,-99.99,,2013-02-04 06:42:00,
2013-02-03 23:52:00,29.0,26.0,30.13,South,176,2.0,3.0,91,0.00,,,-99.99,,2013-02-04 06:52:00,